CZ-6A DEB, 56624

Orbit data source: Space-Track

CZ-6A DEB, 56624 is space debris in SSO originally from a launch on Fri, 11 Nov 2022 UTC launched from the Taiyaun Space Center, China (TSC). Debris objects in space refer to the collection of defunct objects orbiting the Earth. Examples of debris include non-operational satellites, rocket bodies, and fragments generated from explosions, collisions, or faulty payload assembly.

Loading next visibility...
Identifier
56624, 2022-151AEY
Orbit
SSO
Country
Flag of CNCN / PRC
Related business
Manufacturer
SAST
Mission
Spacecraft
Bus & Motor
Unknown
Mass
Unknown
Launch date (UTC)
2022-11-11 (4 years ago)
Launch vehicle
Unknown
Launch site
Taiyaun Space Center, China (TSC)
Object type
Payload
Rocket body
Debris
Shape & HBR
Unknown shape, 0.1 m
Radar Cross Section
Medium (>0.1 m² and <1 m²)

Expand to show TLE details & history
Last TLE update: 3 days ago

TLE from 3 days ago
0 CZ-6A DEB
1 56624U 22151AEY 26170.29007101  .00000239  00000-0  15752-3 0  9997
2 56624  98.8487 173.1565 0043893 339.9598  19.9848 14.10498055167279
Epoch: 2026-06-19T06:57Z
TLE epoch observation values (Epoch: 2026-06-19T06:57:42.135Z)
Latitude
0.00002°
Longitude
161.20976°
Altitude
830.728 km
Speed
7.453 km/s
True Right ascension
11h 32m 37s
True Declination
0° 00' 00"
Sunlit
Object was in daylight at epoch
Visualization orbit readout
Latitude
Unknown
Longitude
Unknown
Altitude
Unknown
Speed
Unknown
Apparent Right ascension
Unknown
Apparent Declination
Unknown
Sunlit
N/A
Visualization observer readout
Local Sidereal Time
21:46:01
Azimuth
Unknown
Elevation
Unknown
Doppler factor
Unknown
Orbital elements
Apogee altitude
886.594 km
Perigee altitude
823.098 km
Semi-major axis
7,232.983 km
Eccentricity
0.00439
Inclination
98.8487°
RAAN
173.1565°
Arg. of periapsis
339.9598°
True anomaly
20.15759°
Mean anomaly
19.9848°
Eccentric anomaly
20.07111°
Mean motion
3.52831 °/min
Orbital period
102.03 mins
BSTAR
0.00015752
Loading maneuver chart data...
Computing Atmospheric mass density...

Documentation

Showing up to 5 results
|